AZU2340 SBCN-SBLO

Flight info

Callsign AZU2340
Flight time 1h 3m
Altitude 32000
Route GIDVO DCT KOVAX UM532 GEKEM DCT KOTEG
Aircraft E195/M-SDE3GILORVW/S

Departure

Time 2026-04-12 12:52
Airport Nelson Ribeiro Guimarães Airport (SBCN)

Arrival

Time 2026-04-12 13:55
Airport Governor José Richa Airport (SBLO)
Time Latitude Longitude Altitude Speed Heading
2026-04-12 12:29 -17.72589 -48.61431 2322 ft 0 kts 336°
2026-04-12 12:42 -17.72593 -48.61430 2322 ft 2 kts 358°
2026-04-12 12:43 -17.72604 -48.61424 2322 ft 2 kts 313°
2026-04-12 12:43 -17.72613 -48.61411 2322 ft 2 kts 294°
2026-04-12 12:43 -17.72617 -48.61396 2322 ft 2 kts 275°
2026-04-12 12:43 -17.72616 -48.61381 2322 ft 2 kts 255°
2026-04-12 12:44 -17.72613 -48.61372 2321 ft 0 kts 246°
2026-04-12 12:47 -17.72615 -48.61377 2322 ft 1 kts 246°
2026-04-12 12:47 -17.72623 -48.61397 2322 ft 4 kts 246°
2026-04-12 12:47 -17.72647 -48.61418 2322 ft 5 kts 198°
2026-04-12 12:48 -17.72688 -48.61408 2322 ft 7 kts 159°
2026-04-12 12:48 -17.72726 -48.61392 2322 ft 0 kts 157°
2026-04-12 12:49 -17.72734 -48.61388 2322 ft 2 kts 156°
2026-04-12 12:49 -17.72757 -48.61378 2322 ft 4 kts 156°
2026-04-12 12:49 -17.72792 -48.61370 2322 ft 5 kts 179°
2026-04-12 12:49 -17.72826 -48.61392 2322 ft 6 kts 242°
2026-04-12 12:50 -17.72844 -48.61432 2323 ft 6 kts 245°
2026-04-12 12:50 -17.72862 -48.61470 2324 ft 5 kts 237°
2026-04-12 12:50 -17.72897 -48.61496 2324 ft 6 kts 204°
2026-04-12 12:50 -17.72897 -48.61528 2325 ft 5 kts 345°
2026-04-12 12:51 -17.72876 -48.61507 2324 ft 0 kts 65°
2026-04-12 12:51 -17.72808 -48.61348 2321 ft 63 kts 66°
2026-04-12 12:51 -17.72523 -48.60666 2301 ft 136 kts 66°
2026-04-12 12:52 -17.72137 -48.59664 2761 ft 152 kts 71°
2026-04-12 12:52 -17.71819 -48.58609 3536 ft 153 kts 76°
2026-04-12 12:52 -17.71864 -48.57494 3979 ft 175 kts 113°
2026-04-12 12:52 -17.72874 -48.56570 4249 ft 216 kts 158°
2026-04-12 12:53 -17.74467 -48.56657 4676 ft 247 kts 202°
2026-04-12 12:53 -17.75780 -48.57822 5384 ft 256 kts 227°
2026-04-12 12:53 -17.77189 -48.59071 5798 ft 277 kts 211°
2026-04-12 12:53 -17.78923 -48.60086 6275 ft 296 kts 204°
2026-04-12 12:54 -17.80834 -48.60996 7107 ft 300 kts 201°
2026-04-12 12:54 -17.82738 -48.61809 8103 ft 296 kts 200°
2026-04-12 12:54 -17.84649 -48.62585 9117 ft 291 kts 200°
2026-04-12 12:54 -17.86502 -48.63320 10029 ft 288 kts 200°
2026-04-12 12:55 -17.88359 -48.64127 10782 ft 291 kts 212°
2026-04-12 12:55 -17.89920 -48.65536 11342 ft 301 kts 223°
2026-04-12 12:55 -17.91450 -48.67104 11847 ft 313 kts 223°
2026-04-12 12:55 -17.93029 -48.68733 12365 ft 323 kts 224°
2026-04-12 12:56 -17.94655 -48.70417 12962 ft 329 kts 224°
2026-04-12 12:56 -17.96283 -48.72106 13637 ft 332 kts 224°
2026-04-12 12:56 -17.97924 -48.73809 14325 ft 334 kts 224°
2026-04-12 12:56 -17.99580 -48.75529 14957 ft 338 kts 224°
2026-04-12 12:57 -18.01264 -48.77278 15567 ft 342 kts 224°
2026-04-12 12:57 -18.02970 -48.79050 16158 ft 346 kts 224°
2026-04-12 12:57 -18.04680 -48.80828 16734 ft 350 kts 224°
2026-04-12 12:57 -18.06421 -48.82638 17309 ft 353 kts 224°
2026-04-12 12:58 -18.08172 -48.84460 17876 ft 357 kts 224°
2026-04-12 12:58 -18.09933 -48.86292 18464 ft 360 kts 224°
2026-04-12 12:58 -18.11728 -48.88160 19066 ft 362 kts 224°
2026-04-12 12:58 -18.13528 -48.90033 19672 ft 363 kts 224°
2026-04-12 12:59 -18.15329 -48.91910 20262 ft 365 kts 224°
2026-04-12 12:59 -18.17121 -48.93776 20839 ft 367 kts 224°
2026-04-12 12:59 -18.18954 -48.95686 21408 ft 369 kts 224°
2026-04-12 12:59 -18.20761 -48.97569 21949 ft 371 kts 224°
2026-04-12 13:00 -18.22596 -48.99483 22483 ft 373 kts 224°
2026-04-12 13:00 -18.24449 -49.01414 22992 ft 375 kts 224°
2026-04-12 13:00 -18.26313 -49.03360 23523 ft 377 kts 225°
2026-04-12 13:00 -18.28182 -49.05310 24051 ft 379 kts 225°
2026-04-12 13:01 -18.30034 -49.07244 24546 ft 381 kts 225°
2026-04-12 13:01 -18.31926 -49.09219 25007 ft 383 kts 225°
2026-04-12 13:01 -18.33834 -49.11212 25494 ft 385 kts 225°
2026-04-12 13:01 -18.35714 -49.13176 25973 ft 386 kts 226°
2026-04-12 13:02 -18.37621 -49.15171 26428 ft 388 kts 226°
2026-04-12 13:02 -18.39537 -49.17175 26873 ft 390 kts 226°
2026-04-12 13:02 -18.41487 -49.19214 27320 ft 392 kts 226°
2026-04-12 13:02 -18.43409 -49.21225 27748 ft 393 kts 226°
2026-04-12 13:03 -18.45390 -49.23189 28173 ft 395 kts 223°
2026-04-12 13:03 -18.47458 -49.25131 28621 ft 396 kts 224°
2026-04-12 13:03 -18.49513 -49.27074 29028 ft 397 kts 224°
2026-04-12 13:03 -18.51571 -49.29024 29412 ft 400 kts 224°
2026-04-12 13:04 -18.53645 -49.30992 29782 ft 402 kts 224°
2026-04-12 13:04 -18.55731 -49.32971 30182 ft 403 kts 224°
2026-04-12 13:04 -18.57809 -49.34944 30550 ft 405 kts 224°
2026-04-12 13:04 -18.59904 -49.36933 30968 ft 406 kts 224°
2026-04-12 13:05 -18.61998 -49.38922 31330 ft 407 kts 224°
2026-04-12 13:05 -18.64103 -49.40922 31692 ft 409 kts 224°
2026-04-12 13:05 -18.66204 -49.42918 32089 ft 404 kts 224°
2026-04-12 13:05 -18.68285 -49.44898 32139 ft 404 kts 224°
2026-04-12 13:06 -18.72614 -49.49018 32167 ft 422 kts 224°
2026-04-12 13:06 -18.77085 -49.53274 32165 ft 435 kts 224°
2026-04-12 13:07 -18.81652 -49.57572 32148 ft 435 kts 220°
2026-04-12 13:07 -18.86918 -49.60826 32162 ft 439 kts 210°
2026-04-12 13:08 -18.92372 -49.63795 32155 ft 438 kts 211°
2026-04-12 13:08 -18.97806 -49.66777 32162 ft 438 kts 211°
2026-04-12 13:09 -19.03241 -49.69764 32157 ft 437 kts 211°
2026-04-12 13:09 -19.08654 -49.72739 32160 ft 437 kts 211°
2026-04-12 13:10 -19.14085 -49.75728 32165 ft 437 kts 211°
2026-04-12 13:10 -19.19540 -49.78732 32163 ft 437 kts 211°
2026-04-12 13:11 -19.24943 -49.81709 32163 ft 438 kts 211°
2026-04-12 13:11 -19.30360 -49.84697 32162 ft 438 kts 211°
2026-04-12 13:12 -19.35811 -49.87688 32159 ft 437 kts 211°
2026-04-12 13:12 -19.41295 -49.90620 32159 ft 437 kts 211°
2026-04-12 13:13 -19.46740 -49.93536 32156 ft 438 kts 210°
2026-04-12 13:13 -19.52215 -49.96471 32151 ft 437 kts 210°
2026-04-12 13:14 -19.57699 -49.99413 32151 ft 437 kts 211°
2026-04-12 13:14 -19.63147 -50.02338 32140 ft 437 kts 211°
2026-04-12 13:15 -19.68623 -50.05281 32136 ft 436 kts 211°
2026-04-12 13:15 -19.74059 -50.08204 32131 ft 438 kts 211°
2026-04-12 13:16 -19.79487 -50.11125 32127 ft 437 kts 211°
2026-04-12 13:16 -19.84972 -50.14079 32128 ft 438 kts 211°
2026-04-12 13:17 -19.90420 -50.17015 32123 ft 438 kts 211°
2026-04-12 13:17 -19.95875 -50.19957 32122 ft 439 kts 211°
2026-04-12 13:18 -20.01382 -50.22931 32123 ft 438 kts 211°
2026-04-12 13:19 -20.09549 -50.27352 32128 ft 437 kts 211°
2026-04-12 13:19 -20.14956 -50.30287 32133 ft 436 kts 211°
2026-04-12 13:20 -20.20406 -50.33252 32133 ft 436 kts 211°
2026-04-12 13:20 -20.25834 -50.36206 32137 ft 437 kts 211°
2026-04-12 13:21 -20.31273 -50.39168 32132 ft 437 kts 211°
2026-04-12 13:21 -20.36749 -50.42153 32125 ft 436 kts 211°
2026-04-12 13:22 -20.42172 -50.45113 32122 ft 436 kts 211°
2026-04-12 13:22 -20.47596 -50.48074 32114 ft 436 kts 211°
2026-04-12 13:23 -20.52998 -50.51026 32111 ft 436 kts 211°
2026-04-12 13:23 -20.58433 -50.53999 32109 ft 436 kts 211°
2026-04-12 13:24 -20.63844 -50.56960 32108 ft 435 kts 211°
2026-04-12 13:24 -20.69252 -50.59922 32104 ft 437 kts 211°
2026-04-12 13:25 -20.74705 -50.62912 32099 ft 436 kts 211°
2026-04-12 13:25 -20.80121 -50.65911 32115 ft 436 kts 212°
2026-04-12 13:26 -20.85493 -50.68951 32112 ft 436 kts 212°
2026-04-12 13:26 -20.90896 -50.72008 32116 ft 436 kts 212°
2026-04-12 13:27 -20.96264 -50.75049 32112 ft 436 kts 212°
2026-04-12 13:27 -21.01687 -50.78122 32115 ft 436 kts 212°
2026-04-12 13:28 -21.06210 -50.80688 32116 ft 435 kts 212°
2026-04-12 13:28 -21.12495 -50.84256 32127 ft 435 kts 212°
2026-04-12 13:29 -21.17864 -50.87313 32131 ft 435 kts 213°
2026-04-12 13:29 -21.23284 -50.90403 32135 ft 436 kts 213°
2026-04-12 13:30 -21.28638 -50.93454 32138 ft 436 kts 212°
2026-04-12 13:30 -21.34034 -50.96529 32135 ft 436 kts 212°
2026-04-12 13:31 -21.39398 -50.99588 32138 ft 436 kts 212°
2026-04-12 13:31 -21.44763 -51.02651 32137 ft 436 kts 212°
2026-04-12 13:32 -21.50065 -51.05666 32127 ft 418 kts 212°
2026-04-12 13:32 -21.55225 -51.08600 32130 ft 417 kts 213°
2026-04-12 13:33 -21.60383 -51.11494 32137 ft 418 kts 212°
2026-04-12 13:33 -21.62962 -51.12940 31956 ft 424 kts 212°
2026-04-12 13:33 -21.65595 -51.14415 31012 ft 426 kts 212°
2026-04-12 13:33 -21.68218 -51.15884 30548 ft 420 kts 212°
2026-04-12 13:34 -21.70793 -51.17326 30090 ft 418 kts 211°
2026-04-12 13:34 -21.73512 -51.18514 29619 ft 422 kts 201°
2026-04-12 13:34 -21.76407 -51.19205 29134 ft 426 kts 192°
2026-04-12 13:34 -21.79334 -51.19455 28671 ft 424 kts 188°
2026-04-12 13:35 -21.82268 -51.19713 28192 ft 422 kts 189°
2026-04-12 13:35 -21.85181 -51.19998 27730 ft 419 kts 189°
2026-04-12 13:35 -21.88100 -51.20292 27259 ft 417 kts 189°
2026-04-12 13:35 -21.91022 -51.20590 26795 ft 414 kts 189°
2026-04-12 13:36 -21.93861 -51.20880 26347 ft 412 kts 188°
2026-04-12 13:36 -21.96702 -51.21172 25893 ft 409 kts 188°
2026-04-12 13:36 -21.98589 -51.21365 25588 ft 407 kts 188°
2026-04-12 13:36 -22.02362 -51.21752 24986 ft 404 kts 188°
2026-04-12 13:37 -22.05165 -51.22039 24535 ft 401 kts 188°
2026-04-12 13:37 -22.07926 -51.22323 24101 ft 398 kts 187°
2026-04-12 13:37 -22.10719 -51.22610 23659 ft 395 kts 187°
2026-04-12 13:37 -22.13457 -51.22891 23224 ft 394 kts 187°
2026-04-12 13:38 -22.16168 -51.23169 22792 ft 391 kts 187°
2026-04-12 13:38 -22.18890 -51.23449 22363 ft 390 kts 187°
2026-04-12 13:38 -22.21586 -51.23726 21933 ft 388 kts 187°
2026-04-12 13:38 -22.24290 -51.24004 21501 ft 385 kts 187°
2026-04-12 13:39 -22.26935 -51.24276 21082 ft 383 kts 187°
2026-04-12 13:39 -22.29571 -51.24548 20661 ft 380 kts 187°
2026-04-12 13:39 -22.32191 -51.24818 20239 ft 377 kts 187°
2026-04-12 13:39 -22.34815 -51.25088 19815 ft 375 kts 187°
2026-04-12 13:40 -22.37393 -51.25354 19403 ft 373 kts 187°
2026-04-12 13:40 -22.39986 -51.25621 18992 ft 371 kts 187°
2026-04-12 13:40 -22.42565 -51.25887 18577 ft 369 kts 187°
2026-04-12 13:40 -22.45095 -51.26148 18172 ft 367 kts 187°
2026-04-12 13:41 -22.47658 -51.26413 17762 ft 364 kts 187°
2026-04-12 13:41 -22.50172 -51.26672 17362 ft 362 kts 187°
2026-04-12 13:41 -22.52665 -51.26930 16961 ft 360 kts 187°
2026-04-12 13:41 -22.55191 -51.27191 16559 ft 358 kts 186°
2026-04-12 13:42 -22.57645 -51.27445 16165 ft 357 kts 186°
2026-04-12 13:42 -22.60129 -51.27702 15768 ft 354 kts 186°
2026-04-12 13:42 -22.62580 -51.27955 15377 ft 352 kts 186°
2026-04-12 13:42 -22.65029 -51.28209 14986 ft 351 kts 186°
2026-04-12 13:43 -22.67472 -51.28462 14592 ft 350 kts 186°
2026-04-12 13:43 -22.69878 -51.28665 14206 ft 349 kts 182°
2026-04-12 13:43 -22.72316 -51.28767 13819 ft 346 kts 182°
2026-04-12 13:43 -22.74744 -51.28871 13435 ft 344 kts 182°
2026-04-12 13:44 -22.77134 -51.28974 13059 ft 342 kts 182°
2026-04-12 13:44 -22.79521 -51.29077 12679 ft 340 kts 182°
2026-04-12 13:44 -22.81867 -51.29179 12307 ft 339 kts 182°
2026-04-12 13:44 -22.84244 -51.29282 11929 ft 336 kts 182°
2026-04-12 13:45 -22.86562 -51.29382 11561 ft 330 kts 182°
2026-04-12 13:45 -22.88818 -51.29480 11197 ft 322 kts 183°
2026-04-12 13:45 -22.91044 -51.29577 10842 ft 314 kts 183°
2026-04-12 13:45 -22.93218 -51.29671 10494 ft 306 kts 183°
2026-04-12 13:46 -22.95313 -51.29763 10163 ft 298 kts 183°
2026-04-12 13:46 -22.97387 -51.29853 9833 ft 291 kts 183°
2026-04-12 13:46 -22.99405 -51.29941 9516 ft 289 kts 183°
2026-04-12 13:46 -23.01374 -51.30027 9134 ft 275 kts 183°
2026-04-12 13:47 -23.03213 -51.30107 8872 ft 257 kts 183°
2026-04-12 13:47 -23.04976 -51.30184 8644 ft 247 kts 183°
2026-04-12 13:47 -23.06658 -51.30257 8459 ft 237 kts 183°
2026-04-12 13:47 -23.08293 -51.30329 8133 ft 234 kts 183°
2026-04-12 13:48 -23.09905 -51.30400 7856 ft 228 kts 183°
2026-04-12 13:48 -23.11480 -51.30468 7594 ft 222 kts 183°
2026-04-12 13:48 -23.13004 -51.30535 7349 ft 217 kts 183°
2026-04-12 13:48 -23.14514 -51.30601 7102 ft 212 kts 183°
2026-04-12 13:49 -23.15988 -51.30666 6871 ft 210 kts 183°
2026-04-12 13:49 -23.17487 -51.30724 6539 ft 213 kts 181°
2026-04-12 13:49 -23.18968 -51.30720 6311 ft 211 kts 180°
2026-04-12 13:49 -23.20425 -51.30716 6110 ft 205 kts 180°
2026-04-12 13:50 -23.21860 -51.30711 5853 ft 200 kts 179°
2026-04-12 13:50 -23.23235 -51.30706 5626 ft 194 kts 179°
2026-04-12 13:50 -23.24566 -51.30701 5402 ft 189 kts 179°
2026-04-12 13:50 -23.25871 -51.30696 5195 ft 185 kts 179°
2026-04-12 13:51 -23.27095 -51.30405 4986 ft 180 kts 142°
2026-04-12 13:51 -23.27833 -51.29362 4806 ft 174 kts 109°
2026-04-12 13:51 -23.28270 -51.28125 4592 ft 174 kts 108°
2026-04-12 13:51 -23.28692 -51.26907 4366 ft 172 kts 107°
2026-04-12 13:52 -23.29097 -51.25725 4228 ft 160 kts 108°
2026-04-12 13:52 -23.29473 -51.24622 3958 ft 152 kts 107°
2026-04-12 13:52 -23.29829 -51.23574 3702 ft 140 kts 107°
2026-04-12 13:52 -23.30157 -51.22602 3513 ft 135 kts 107°
2026-04-12 13:53 -23.30482 -51.21638 3374 ft 136 kts 106°
2026-04-12 13:53 -23.30809 -51.20668 3193 ft 133 kts 106°
2026-04-12 13:53 -23.31125 -51.19724 3030 ft 135 kts 107°
2026-04-12 13:53 -23.31455 -51.18743 2865 ft 138 kts 108°
2026-04-12 13:54 -23.31785 -51.17761 2676 ft 139 kts 108°
2026-04-12 13:54 -23.32120 -51.16763 2498 ft 141 kts 109°
2026-04-12 13:54 -23.32462 -51.15758 2306 ft 143 kts 113°
2026-04-12 13:54 -23.32798 -51.14729 2109 ft 146 kts 107°
2026-04-12 13:55 -23.33132 -51.13675 1937 ft 147 kts 110°
2026-04-12 13:55 -23.33465 -51.12691 1871 ft 127 kts 111°
2026-04-12 13:55 -23.33703 -51.12004 1871 ft 41 kts 110°
2026-04-12 13:55 -23.33722 -51.11953 1870 ft 3 kts 118°
2026-04-12 13:56 -23.33723 -51.11936 1870 ft 2 kts 24°
2026-04-12 13:56 -23.33714 -51.11952 1870 ft 4 kts 287°
2026-04-12 13:56 -23.33703 -51.11989 1870 ft 6 kts 287°
2026-04-12 13:56 -23.33688 -51.12038 1870 ft 7 kts 288°
2026-04-12 13:57 -23.33668 -51.12101 1870 ft 9 kts 290°
2026-04-12 13:57 -23.33641 -51.12175 1871 ft 11 kts 291°
2026-04-12 13:57 -23.33610 -51.12262 1871 ft 13 kts 290°
2026-04-12 13:57 -23.33577 -51.12360 1871 ft 14 kts 290°
2026-04-12 13:58 -23.33539 -51.12471 1871 ft 16 kts 290°
2026-04-12 13:58 -23.33497 -51.12594 1871 ft 18 kts 290°
2026-04-12 13:58 -23.33454 -51.12725 1871 ft 18 kts 289°
2026-04-12 13:58 -23.33412 -51.12851 1871 ft 16 kts 290°
2026-04-12 13:59 -23.33370 -51.12976 1871 ft 18 kts 290°
2026-04-12 13:59 -23.33329 -51.13100 1871 ft 17 kts 290°
2026-04-12 13:59 -23.33285 -51.13230 1871 ft 17 kts 290°
2026-04-12 13:59 -23.33242 -51.13358 1871 ft 18 kts 289°
2026-04-12 14:00 -23.33199 -51.13483 1871 ft 18 kts 290°
2026-04-12 14:00 -23.33158 -51.13609 1871 ft 15 kts 290°
2026-04-12 14:00 -23.33119 -51.13704 1871 ft 11 kts 330°
2026-04-12 14:00 -23.33057 -51.13697 1871 ft 1 kts 19°
2026-04-12 14:01 -23.33044 -51.13692 1871 ft 2 kts 19°
2026-04-12 14:01 -23.33020 -51.13683 1871 ft 4 kts 19°
2026-04-12 14:01 -23.32985 -51.13670 1871 ft 6 kts 12°
2026-04-12 14:01 -23.32943 -51.13659 1871 ft 6 kts 18°
2026-04-12 14:02 -23.32930 -51.13654 1871 ft 1 kts 19°
2026-04-12 14:02 -23.32912 -51.13647 1871 ft 3 kts 19°
2026-04-12 14:02 -23.32906 -51.13645 1871 ft 0 kts 20°